Погода в Петровске

Россия / Саратовская область     52°18′50″N   45°23′23″E
темп.,
°C
ветер,
м/с
пор.,
м/с
влажн.,
%
обл.,
%
осадки,
мм/ч
давл.,
гПа
погр.,
м
21 января, пт
пт2101:00−19ююз2410096 0.0 102141
04:00−20ю24100100 0.0 102053
07:00−20ююв2410097 0.0 102042
10:00−17юв411100100 0.0 1019150
13:00−13ююв51396100 0.0 1018297
16:00−11ююв81893100 0.0 1015483
19:00−10ююв91894100 0.1 1014532
22:00−8ююв91794100 0.8 1012575
22 января, сб
сб2201:00−6ююв81695100 1.1 1011547
04:00−4ююв51194100 2.0 1012373
07:00−5ююв4797100 0.1 1013226
10:00−6юв3698100 0.1 1015141
13:00−3ю3793100 0.0 1015507
16:00−3ю2597100 0.9 1016332
19:00−4ююв2497100 0.9 1017121
22:00−5юв2298100 1.0 101837
23 января, вс
вс2301:00−5ююв1198100 0.5 102023
04:00−4св1198100 1.7 102030
07:00−4вюв3597100 1.0 1022204
10:00−5вюв3697100 1.7 1024283
13:00−4вюв3695100 0.6 1025339
16:00−4в4796100 1.8 1026371
19:00−5вюв51095100 1.1 1028358
22:00−6вюв51092100 1.4 1030322
24 января, пн
пн2401:00−8в51190100 0.0 1031273
04:00−9в41089100 0.0 1032247
07:00−11в41189100 0.0 1032219
10:00−11в41191100 0.0 1034233
13:00−9в51188100 0.0 1034329
16:00−9в4991100 0.0 1034209
19:00−11в51290100 0.0 1034206
22:00−12вюв41291100 0.0 1035206
25 января, вт
вт2501:00−14вюв379462 0.0 1035105
04:00−19в239996 0.0 103528
07:00−20в2310085 0.0 103430
10:00−16вюв3894100 0.0 1034118
13:00−12юв3887100 0.0 1033173
16:00−13вюв3790100 0.0 1032132
19:00−17вюв3593100 0.0 103161
22:00−17юв3595100 0.0 103161